Hourly Data Report for September 30, 2017

All times are specified in Local Standard Time (LST). Add 1 hour to adjust for Daylight Saving Time where and when it is observed.

NAPPAN AUTO
NOVA SCOTIA

45°45'34.400" N
64°14'29.200" W
19.80 m
8203702
71311
XNP

Download Data

Hourly Data (September 2017)
Hourly Data Report for September 30, 2017
Temp Definition
°C
Dew Point Temp Definition
°C
Rel Hum Definition
%
Wind Dir Definition
10's deg

Wind Spd Definition
km/h
Visibility Definition
km
Stn Press Definition
kPa
Hmdx Definition


Wind Chill Definition


Weather Definition


TIME
00:00 6.9 6.1 94 33 9   101.58     LegendNANA
01:00 6.5 5.7 95 34 7   101.63     LegendNANA
02:00 5.7 5.1 96 4 1   101.64     LegendNANA
03:00 5.3 4.7 96 4 3   101.67     LegendNANA
04:00 4.2 3.7 97 15 2   101.76     LegendNANA
05:00 4.2 4.0 98   0   101.79     LegendNANA
06:00 3.8 3.5 98 5 3   101.88     LegendNANA
07:00 4.3 3.6 95 7 3   101.98     LegendNANA
08:00 5.1 4.5 96 11 3   102.03     LegendNANA
09:00 8.4 6.9 91 35 8   102.10     LegendNANA
10:00 10.0 5.8 75 33 17   102.12     LegendNANA
11:00 10.9 6.1 72 34 19   102.16     LegendNANA
12:00 11.5 5.4 66 36 16   102.15     LegendNANA
13:00 11.1 5.1 67 35 19   102.14     LegendNANA
14:00 11.0 5.5 69 35 21   102.15     LegendNANA
15:00 11.6 5.7 67 36 14   102.15     LegendNANA
16:00 11.3 4.3 62 1 15   102.15     LegendNANA
17:00 10.5 4.0 64 36 14   102.15     LegendNANA
18:00 8.5 3.7 72 4 4   102.18     LegendNANA
19:00 5.7 3.2 84 9 3   102.23     LegendNANA
20:00 4.8 3.5 92 19 4   102.25     LegendNANA
21:00 3.3 2.4 94 16 5   102.27     LegendNANA
22:00 3.0 2.3 95 16 6   102.24     LegendNANA
23:00 2.0 1.8 99 19 7   102.21     LegendNANA

Notes on Data Quality.

Legend

  • E = Estimated
  • M = Missing
  • NA = Not Available
  • ‡ = Partner data that is not subject to review by the National Climate Archives
Date modified: